Tracking 28790 objects as of 19-Apr-2024
HD Live streaming from Space Station
objects crossing your sky now

SL-14 DEB

Track SL-14 DEB now!
10-day predictions


NORAD ID: 26017
Int'l Code: 1991-068AC
Perigee: 1,452.2 km
Apogee: 1,547.3 km
Inclination: 82.7 °
Period: 115.8 minutes
Semi major axis: 7870 km
RCS: 0.1062 m2 (medium)
Launch date: September 28, 1991
Source: Commonwealth of Independent States (former USSR) (CIS)
Launch site: PLESETSK MISSILE AND SPACE COMPLEX (PKMTR)

Note: This is SATELLITE DEBRIS
Your satellite tracking list
Your tracking list is empty




NASA's NSSDC Master Catalog

Two Line Element Set (TLE):
1 26017U 91068AC  24109.39453347  .00000039  00000-0  20138-3 0  9993
2 26017  82.6917  63.4584 0060359 148.0600 333.1799 12.43309185481748
Source of the keplerian elements: AFSPC